Гуга

Россия / Хабаровский край     52°41′53″N   137°32′12″E
темп.,
°C
ветер,
м/с
пор.,
м/с
влажн.,
%
обл.,
%
осадки,
мм/ч
давл.,
гПа
погр.,
м
14 мая, пт
пт1401:00+7ссв1294100 1.1 100778
04:00+7ссв129398 1.7 100755
07:00+7ссв128890 0.3 1008161
10:00+9св0183100 0.9 1009414
13:00+8ссз0189100 0.7 1010260
16:00+9зсз118498 0.8 1010417
19:00+10в128025 0.0 1010444
22:00+6св1194100 0.0 101110
15 мая, сб
сб1501:00+6в2196100 0.0 100924
04:00+6вюв1297100 0.7 100858
07:00+6в2997100 0.5 1004272
10:00+8вюв41089100 2.4 999581
13:00+8вюв3994100 7.3 995517
16:00+7вюв3994100 9.3 990507
19:00+7ююз2899100 1.2 989612
22:00+3зюз31196100 2.5 991609
16 мая, вс
вс1601:00+1з2599100 3.3 992312
04:000з2695100 5.1 993507
07:00+1зсз41288100 0.2 9951111
10:00+4сз5974100 0.3 9961222
13:00+6зсз5986100 0.9 9971079
16:00+5с468873 1.1 998535
19:00+6ссв12819 0.0 999372
22:00+1ссв22955 0.0 100019
17 мая, пн
пн1701:000всв119538 0.0 100010
04:00+1св1194100 0.0 99820
07:00+3св1292100 0.5 997108
10:00+5юв128880 1.8 997403
13:00+10всв137695 0.0 996679
16:00+11ссз2380100 2.1 994332
19:00+7с1296100 6.5 997217
22:00+3с2398100 8.0 1000198
18 мая, вт
вт1801:00+1с239883 0.0 1002148
04:00+1с1294100 0.0 1004134
07:00+3с118711 0.0 1005207
10:00+9в116719 0.0 1004816
13:00+12ююз025580 0.0 10031537
16:00+14всв134631 0.0 10021520
19:00+12всв236664 0.0 1001120
22:00+8св2280100 0.0 100138